This is the latest recevied weather packets stored in our database for station/object KJ5EHN. If no packets are shown the sender has not sent any weather packets the latest 10 day(s).
| Time | Temp. | Humidity | Pressure | Rain* | Wind** | Luminosity | Snow |
|---|---|---|---|---|---|---|---|
| 1777908096 | 22.78° C | 54% | 1012.7 hPa | 0 mm | - | - | - |
| 1777907792 | 22.22° C | 56% | 1012.6 hPa | 0 mm | - | - | - |
| 1777907487 | 22.22° C | 55% | 1012.5 hPa | 0 mm | - | - | - |
| 1777907184 | 22.22° C | 54% | 1012.8 hPa | 0 mm | - | - | - |
| 1777906881 | 22.22° C | 56% | 1012.6 hPa | 0 mm | - | - | - |
| 1777906578 | 21.67° C | 58% | 1012.9 hPa | 0 mm | - | - | - |
| 1777906273 | 21.67° C | 58% | 1012.8 hPa | 0 mm | - | - | - |
| 1777905970 | 21.67° C | 58% | 1012.8 hPa | 0 mm | - | - | - |
| 1777905667 | 21.67° C | 59% | 1012.9 hPa | 0 mm | - | - | - |
| 1777905364 | 21.11° C | 59% | 1012.8 hPa | 0 mm | - | - | - |
| 1777905061 | 20.56° C | 61% | 1012.9 hPa | 0 mm | - | - | - |
| 1777904759 | 21.11° C | 60% | 1012.9 hPa | 0 mm | - | - | - |
| 1777904456 | 20.56° C | 61% | 1012.9 hPa | 0 mm | - | - | - |
| 1777904152 | 20.56° C | 61% | 1012.9 hPa | 0 mm | - | - | - |
| 1777903849 | 20.56° C | 62% | 1013 hPa | 0 mm | - | - | - |
| 1777903546 | 20° C | 63% | 1013 hPa | 0 mm | - | - | - |
| 1777903242 | 20° C | 64% | 1012.8 hPa | 0 mm | - | - | - |
| 1777902938 | 20° C | 64% | 1012.8 hPa | 0 mm | - | - | - |
| 1777902636 | 19.44° C | 65% | 1012.9 hPa | 0 mm | - | - | - |
| 1777902333 | 19.44° C | 65% | 1012.9 hPa | 0 mm | - | - | - |
| 1777902030 | 19.44° C | 66% | 1012.9 hPa | 0 mm | - | - | - |
| 1777901728 | 19.44° C | 66% | 1012.9 hPa | 0 mm | - | - | - |
| 1777901425 | 19.44° C | 66% | 1013 hPa | 0 mm | - | - | - |
| 1777901123 | 18.89° C | 66% | 1012.8 hPa | 0 mm | - | - | - |
| 1777900820 | 18.89° C | 65% | 1012.9 hPa | 0 mm | - | - | - |
* Rain latest hour (hover to see other rain measurements)
** Current wind speed in m/s (hover to see current wind gust speed)